ECMWFFLT2_con_mucape_132.txt.gz
CAPE
0 0 0 0 0 1 0 0 0 0 5 0 9 3 0 0 0 1 0 234 290 680 674 845 1238 1312 1330 1434 1630 1602 1180 911 1388 1336 1070 1272 1435 1352 1069 791 693 537 470 675 773 985 1151 1101 1042 1052 1319 1689 2062 2254 2369 2561 2387 2698 2770 3012 2610 2434 2611
0 0 0 0 0 0 0 1 0 0 0 0 0 5 49 4 10 10 9 10 102 191 43 936 1240 1002 1231 1370 1574 1458 1241 1033 978 1398 1247 1076 1556 1757 1741 995 828 690 595 736 914 912 976 1143 992 1120 1588 1685 2178 2335 2341 2473 2260 2381 2253 2566 2194 2210 2422
0 0 0 0 0 0 0 0 0 0 0 0 0 0 1 19 9 13 2 4 68 349 484 820 1030 1201 1245 1335 1431 1484 1278 1292 1044 944 1203 1648 1570 2061 1489 673 521 680 714 738 1074 1089 1161 1340 1329 1225 1566 1760 1976 2280 2132 1772 1807 1805 1884 1790 1879 1959 2086
0 0 0 4 0 0 0 0 0 0 0 0 5 0 0 0 51 35 14 0 66 1148 970 916 1111 1361 1260 1031 1323 1365 1093 889 863 929 1186 1096 1496 1675 1821 1360 901 519 503 625 688 862 1063 1299 1451 1318 1494 1618 1523 1955 1938 1683 1629 1739 1702 1549 1660 1825 1848
0 0 0 0 0 0 0 0 0 0 0 1 0 0 0 0 9 3 4 0 44 797 1187 1121 1030 1332 1211 1174 1248 1298 994 814 899 916 967 1168 1251 1502 2107 1941 1924 1280 625 445 510 640 909 1248 1474 1330 1246 1558 1587 1849 1865 1978 1902 2148 2065 1556 1492 1882 1771
0 8 0 0 0 0 0 0 3 17 0 0 0 0 0 0 0 0 0 1 155 850 1062 1131 1167 1242 1210 1239 1220 982 587 671 1009 991 930 1261 1277 1516 1573 1875 1799 1416 891 602 488 808 863 1168 1463 1593 1378 1707 1830 1867 1986 2082 2248 2459 2462 1804 1694 1972 1959
2 0 0 0 4 57 66 36 29 6 16 1 1 0 0 0 0 0 0 0 169 1039 1212 1188 1316 1182 1252 1314 1091 859 750 1014 1007 1022 1198 1060 1299 1490 1201 1703 1538 1240 1351 891 508 628 955 1233 1302 1489 1689 1898 1979 2145 2385 2336 2464 2702 2565 2191 1962 2188 2447
0 0 0 0 1 1 27 11 29 22 107 103 173 224 121 0 0 0 27 8 514 1305 1248 1381 1260 1350 1343 1363 1220 997 888 1018 867 996 1237 1385 1027 1190 1276 1506 1522 1583 1099 1038 1322 812 939 987 1143 1416 1788 2149 2392 2464 2673 2621 2569 2791 2642 2392 2120 2548 2855
0 0 0 0 2 6 3 165 202 260 146 165 259 233 199 4 33 1 6 0 560 1107 1268 1088 1166 1144 1339 1267 1109 910 1002 1068 1087 1158 988 1132 1288 1117 1045 1262 1129 903 734 643 783 1764 1671 1362 1244 1351 1852 2086 2201 2408 2693 2768 2748 2769 2761 2514 2433 2562 2766
9 13 4 3 0 0 5 147 205 186 432 267 122 87 289 36 549 424 236 78 835 1154 1092 1146 1074 989 1122 1108 1112 1084 1110 1196 1019 1209 1129 1161 1240 1268 1181 1114 1192 1154 978 668 843 1360 1817 1724 1256 1058 1342 1868 2100 2162 2346 2632 2657 2754 2801 2749 2489 2456 2812
0 9 4 0 0 0 0 105 140 342 235 269 130 42 378 177 629 552 313 1254 1181 1135 983 1017 941 1018 1012 1228 1204 1007 1062 1077 943 1017 1022 992 951 987 1095 1142 1232 1257 1327 1151 798 842 792 1097 1486 1825 1871 1994 1710 1528 2183 2424 2473 2590 2709 2950 2895 2805 2875
0 0 0 0 0 0 1 33 45 193 230 228 56 108 280 746 477 72 1228 1298 1084 1203 955 1008 898 901 992 1060 1129 918 900 784 752 877 890 904 1018 901 1016 969 985 1010 1001 1066 680 762 772 945 595 522 698 937 958 1190 1622 1894 1691 1980 2777 3023 2997 3022 2960
0 0 0 0 0 0 18 24 63 115 330 286 47 180 351 877 897 1150 1140 1307 1204 1212 997 760 746 778 913 653 797 658 708 779 796 799 774 857 868 811 895 931 856 927 851 732 679 626 585 652 716 701 401 608 700 1100 1012 1488 1143 1147 1720 2576 3142 2847 2947
0 0 0 0 0 64 74 151 108 138 220 572 301 441 638 875 1209 1036 1102 1095 1082 899 837 765 693 683 670 589 553 578 659 753 711 689 658 732 824 853 843 870 822 778 755 750 668 573 522 399 425 467 741 749 618 877 1190 1408 1478 1677 1784 1576 1994 3008 2310
0 0 0 0 0 1 37 257 174 118 213 415 674 747 805 1030 1148 973 900 1131 1052 880 738 700 660 664 634 548 486 490 569 595 570 569 565 724 770 852 946 880 843 780 744 713 667 663 671 567 502 473 392 420 961 1184 1442 1490 1703 1806 1941 2027 1860 3038 2751
0 0 0 2 0 0 0 42 117 144 140 522 613 991 821 760 883 925 891 820 1002 680 592 770 608 552 448 413 421 499 466 526 526 532 414 505 590 815 881 834 712 747 764 728 749 706 711 747 720 672 682 619 677 1003 1265 1371 1546 1566 1488 1708 1969 2601 3024
0 0 0 0 0 0 0 0 20 168 284 352 539 499 549 758 473 315 573 543 650 457 766 689 412 357 331 331 301 321 388 465 438 457 518 632 801 853 826 749 698 675 711 734 723 709 743 680 585 544 588 629 632 699 935 1196 1546 1531 1474 1371 1581 1814 2266
0 0 0 0 0 0 122 437 476 334 624 610 660 853 794 429 484 741 639 670 790 745 742 699 491 186 166 160 114 240 257 237 432 547 650 700 782 758 738 714 652 615 618 609 612 659 647 647 594 581 563 574 595 664 713 821 844 999 1218 1517 1760 1985 2320
0 3 0 0 0 42 234 708 621 550 620 549 557 954 555 774 986 656 687 806 862 834 816 702 400 348 110 70 64 156 138 128 315 511 539 596 618 662 638 606 569 478 441 453 514 524 547 532 496 446 437 423 461 519 596 642 710 713 720 762 999 1204 1627
0 0 0 0 0 57 22 442 759 848 751 629 534 603 807 1148 1224 1105 882 578 1159 869 798 636 458 461 272 203 78 100 210 382 422 487 482 451 440 455 519 518 490 449 520 540 500 502 455 483 475 465 491 482 474 516 539 600 614 585 569 553 567 526 782
0 0 0 0 0 0 2 231 668 548 575 722 484 517 671 918 1092 1180 1356 1019 1088 1019 904 736 720 622 512 453 274 101 318 75 209 324 364 484 478 402 391 394 385 423 469 454 474 414 374 362 342 361 450 503 504 505 507 550 546 506 525 500 472 432 369
0 0 0 0 0 0 359 769 872 549 487 387 484 298 670 590 894 966 1418 1376 1358 968 950 781 888 904 813 614 505 384 289 282 331 272 268 253 271 280 296 308 310 354 334 326 331 339 347 380 371 319 316 390 458 470 473 409 409 385 371 389 334 356 336
0 0 0 0 0 92 240 662 630 626 433 405 361 238 394 877 820 1016 1215 1518 1117 887 891 842 778 799 543 579 695 342 398 349 295 284 267 245 247 261 238 201 198 203 224 266 291 246 251 343 379 339 321 339 359 403 397 360 379 391 344 319 317 285 316
0 0 0 0 0 2 527 516 481 538 638 396 458 309 341 820 933 1018 1210 1507 1313 860 1292 1018 886 557 548 1059 814 299 302 364 325 258 287 299 308 285 253 235 205 178 160 145 193 263 260 313 362 370 335 350 343 337 316 300 301 312 278 273 324 273 244
0 0 0 0 0 402 436 386 402 513 534 486 361 211 474 932 1007 1255 1303 1609 1349 1387 1209 1152 1066 879 1240 983 502 354 336 274 260 217 272 244 201 184 183 191 166 158 176 168 147 116 182 244 282 335 317 299 350 359 278 303 350 311 288 208 167 203 171
0 0 0 0 0 394 445 353 336 507 435 342 206 511 1238 1318 1346 1409 1478 1519 1402 1396 1416 1185 1231 1072 828 477 484 443 413 475 390 231 284 220 178 130 132 40 0 0 0 117 117 112 94 119 164 200 221 264 284 292 346 331 328 267 250 225 162 141 125
3 25 1 0 0 725 523 568 581 588 424 525 503 1216 1617 1380 1400 1301 1314 1344 1328 1506 1334 1168 1254 1014 537 548 531 331 235 340 217 180 180 174 50 45 0 0 0 0 0 0 0 70 66 33 0 28 96 105 168 214 263 309 290 273 264 210 185 131 100
0 0 2 0 203 449 600 376 343 538 577 836 629 942 1510 1304 1210 1226 1253 1434 1409 1456 1357 1164 1148 905 652 580 444 282 172 59 0 0 0 0 5 0 0 0 0 0 0 0 2 0 0 0 0 0 0 0 0 1 17 97 140 228 240 210 145 108 56
6 35 322 896 764 639 567 741 678 1010 907 1096 1144 1046 1038 1171 1025 1317 1115 1564 1558 1400 1155 1049 1193 1016 702 536 389 220 42 0 0 0 0 0 0 0 0 0 0 0 0 0 0 0 0 0 0 0 0 0 0 0 1 1 0 0 0 0 30 0 0
591 341 660 691 640 665 764 522 714 634 761 747 775 723 818 881 1093 1066 1267 1350 1460 1360 1195 1227 1013 780 860 473 350 242 2 0 0 0 0 0 0 0 0 0 0 0 0 0 0 0 0 0 0 0 0 0 0 0 0 0 0 0 0 0 0 0 0
36 231 392 595 737 650 526 515 857 1266 794 744 763 737 794 974 1056 1252 1251 1572 1575 1343 1156 1151 1014 916 627 631 373 188 0 0 0 0 0 0 0 0 0 0 0 0 0 0 0 0 0 0 0 0 0 0 0 0 0 0 0 0 0 0 0 0 0
131 782 585 933 840 780 643 658 733 889 956 734 975 912 1066 1253 1314 1321 1464 1526 1589 1467 1334 1223 1132 925 766 593 233 87 4 2 0 0 3 11 26 75 170 180 50 4 0 0 0 0 0 0 0 0 0 0 0 0 0 0 2 0 0 0 0 0 0
901 1004 1019 688 708 720 795 814 711 698 641 796 1011 1193 1342 1438 1385 1277 1273 1257 1306 1377 1362 1295 1072 940 835 559 204 122 138 64 21 13 37 119 231 372 339 317 253 222 150 14 0 0 0 0 0 0 0 0 0 0 0 0 0 1 14 7 0 0 0
285 237 516 557 364 518 720 978 1148 871 708 777 1048 1148 1056 1094 1272 1270 1238 1183 1189 1220 1268 1179 1027 1013 940 581 285 67 43 70 40 30 36 82 198 322 339 281 238 220 205 142 16 0 0 0 0 0 0 0 0 0 0 0 0 1 2 1 0 0 0
72 214 649 543 345 409 596 728 940 1074 901 936 1072 1147 1020 1048 1225 1289 1298 1273 1212 1122 1149 1066 1063 1026 969 739 413 106 2 40 39 33 36 37 87 239 267 195 166 167 146 122 184 71 12 0 0 0 0 0 0 0 0 0 0 0 0 0 0 0 0
215 374 743 573 425 333 645 757 834 895 942 848 907 1008 1008 973 1134 1202 1297 1371 1374 1182 1082 1036 1023 1025 959 753 463 142 51 16 15 10 47 53 114 186 258 173 178 166 156 161 91 27 56 24 16 4 0 0 0 0 0 0 0 0 0 0 0 0 0
467 788 777 672 877 759 666 910 908 980 1073 817 885 933 1006 1027 1076 1145 1225 1410 1404 1272 1190 1144 1048 918 846 713 584 436 228 74 12 21 50 76 56 147 170 145 176 223 213 90 173 170 82 38 52 45 11 0 0 0 0 0 0 0 0 0 0 0 0

ECMWFFLT2_con_mucape_135.txt.gz
CAPE
0 0 0 0 0 2 3 0 0 0 0 0 19 17 2 0 0 0 0 26 64 276 548 530 762 272 433 1059 1130 871 1062 998 1375 677 938 1436 1384 1556 1459 991 770 885 244 265 499 431 530 556 703 694 829 908 1246 1382 1971 2598 2945 3066 2908 2978 2449 2267 2440
0 0 0 0 0 0 0 2 18 6 0 0 0 0 28 5 0 2 0 0 365 58 224 465 80 590 532 266 1169 1020 739 762 1104 991 1443 1108 1522 1695 1934 1740 1436 1485 762 296 371 587 427 585 630 619 656 940 1152 1063 1127 2456 2793 2766 2675 2590 2088 2165 2233
0 0 0 0 0 0 0 0 0 0 6 4 0 0 0 1 5 0 0 0 3 0 400 431 336 558 391 178 504 956 746 596 997 1333 1312 1254 1062 1581 1798 1716 1554 1244 500 1090 484 516 538 807 786 620 690 761 962 922 1200 1566 2149 1943 2362 2299 1929 1868 2064
0 0 0 0 0 0 0 0 0 0 0 0 0 0 0 0 15 4 27 6 1 307 617 592 607 708 440 468 576 1066 1033 753 844 1167 1059 1161 910 1134 1162 1578 2031 1942 1605 1089 662 682 595 1676 1610 836 340 339 507 984 995 1024 1303 956 820 1556 2017 1572 1711
0 0 0 0 3 1 0 0 0 0 0 1 0 0 0 0 6 4 9 13 436 747 734 933 1050 911 1056 889 714 982 901 989 1078 958 1117 1119 1153 1018 1426 1634 1658 2087 1868 1031 774 643 1184 1833 992 694 787 754 566 864 592 1258 1612 1300 777 724 1680 1696 1353
0 6 9 0 0 0 0 0 0 0 0 2 3 7 0 0 0 15 0 0 534 948 723 1047 1091 387 1186 1320 776 827 816 1207 1331 1099 1172 1178 1300 1177 1228 1856 1480 1955 2108 1301 1218 1225 589 630 1164 996 1584 1516 1580 1448 1038 1666 1743 1270 1075 790 1185 1526 1220
20 0 0 0 0 0 0 0 0 0 0 0 0 0 4 0 0 0 1 3 396 641 946 1055 1254 1139 1383 1216 992 914 1295 1105 1087 1342 1409 1214 1618 1395 1034 1414 1566 1771 1561 1278 1359 1235 1359 1182 1516 1666 1910 1718 1590 1444 1788 2048 2177 2063 1463 904 898 949 1015
0 0 0 0 0 0 0 0 0 0 0 0 0 0 10 56 6 0 3 1 290 398 1024 1536 1364 1396 1368 1241 1114 1118 1259 1253 1298 1628 1766 1683 1118 1837 1780 1786 1533 1502 1585 1122 810 1175 1261 1209 859 921 1385 2120 2506 2644 2166 2198 2338 2416 1944 858 818 1582 2015
2 0 0 0 0 0 0 0 1 1 0 0 0 0 1 0 0 0 0 7 471 1011 910 1083 1282 1104 1346 982 1046 1076 1420 1400 1326 1331 1451 1299 1575 1576 1663 1796 1616 1177 1068 998 730 1240 1596 1145 842 1241 1842 2016 2395 2612 2762 2706 2787 2662 2846 2736 2314 1785 1751
20 17 6 3 8 0 0 0 0 0 0 0 0 36 19 4 117 163 63 32 228 1276 825 1206 938 1083 1108 1447 1134 1056 1195 1280 1182 1103 1456 1125 905 1341 1566 1656 1649 1527 1173 1002 938 1158 1573 2138 1947 1290 1154 1872 2271 2448 2750 3132 2472 2492 2286 2461 2471 1856 2150
0 8 0 0 0 0 0 0 0 0 0 0 34 63 37 0 164 115 149 241 429 393 554 875 655 1404 1108 1003 1258 1046 874 1040 1081 1151 863 867 854 1315 1314 1257 1307 1328 1362 1024 670 721 844 1335 1278 1356 1642 2073 2564 2346 2159 2589 3115 2684 2007 1907 1971 2058 2383
0 0 0 0 0 0 0 0 0 0 0 0 24 13 0 0 0 16 442 750 272 320 274 531 990 1332 1253 950 1041 881 826 708 693 844 841 823 850 908 910 908 1003 1053 978 810 749 939 886 903 912 1080 1019 936 1337 1602 1939 2140 2466 3030 2261 1727 1799 2053 1723
0 0 0 0 0 0 0 0 0 0 0 0 17 4 22 406 235 20 988 1032 676 620 594 932 1105 997 1074 924 694 610 585 661 703 748 889 892 939 873 854 949 902 748 838 705 650 644 572 714 936 1115 1109 1170 1035 1144 1365 1570 1719 2524 2830 2449 2127 1861 1826
0 0 0 0 0 0 0 0 0 0 0 0 10 39 24 190 822 554 388 794 811 730 729 856 942 890 804 738 578 557 624 592 567 648 794 875 895 871 868 796 738 698 746 787 723 632 586 559 475 661 845 925 1265 1045 852 790 633 1479 1661 2737 2557 2294 1896
0 0 0 0 0 0 0 0 0 0 0 0 5 52 136 226 104 407 478 1082 449 524 791 1021 974 927 705 631 554 583 668 628 572 594 733 734 824 842 842 826 782 702 661 680 664 600 556 541 527 448 437 742 1005 1052 888 557 257 372 1545 1714 2321 2339 2077
0 0 0 0 0 0 0 0 0 0 0 0 14 13 58 247 427 592 745 269 644 794 955 991 815 761 737 582 559 497 480 483 436 498 520 564 723 796 769 812 833 807 764 690 744 678 545 529 541 552 493 652 758 1430 1385 1411 848 1894 1698 1888 1886 2029 2002
0 7 0 0 0 0 0 0 0 0 0 0 58 134 118 211 73 24 105 237 531 804 691 638 833 873 729 543 512 457 396 383 348 347 350 502 588 672 727 757 778 736 675 616 573 623 598 648 652 602 596 571 571 724 961 1208 753 1061 1672 1906 1794 1470 1584
6 6 0 0 0 0 69 104 0 0 17 115 60 95 98 120 106 566 231 374 568 910 709 588 1008 1005 727 622 586 520 403 338 366 336 322 374 457 512 562 536 559 512 504 516 594 659 687 684 653 660 592 544 538 587 639 642 826 794 994 1206 1342 1322 1176
0 4 0 0 0 57 14 184 233 14 2 67 195 260 364 458 275 291 332 412 569 878 1177 1062 823 911 754 770 442 514 453 515 462 250 285 249 215 221 53 104 263 375 351 334 406 434 497 611 666 618 581 537 465 514 552 567 618 644 651 654 685 779 838
0 0 0 0 0 85 7 102 14 98 8 6 56 119 263 316 370 673 778 963 1012 768 658 658 623 684 809 682 632 560 188 456 193 55 118 64 19 5 26 24 126 263 408 451 444 463 470 474 496 531 502 469 453 466 428 522 547 540 560 560 586 574 585
0 0 0 0 0 0 0 16 31 43 30 81 80 110 249 611 646 899 600 762 1027 752 845 886 854 830 737 616 624 417 363 132 215 61 164 110 27 8 176 200 189 272 371 391 437 444 415 366 371 418 444 458 443 412 400 402 423 447 464 476 491 455 438
0 0 0 0 0 0 122 573 493 89 89 237 523 240 368 262 361 247 568 501 1184 748 804 898 1004 948 719 678 806 688 414 256 80 58 8 14 7 68 130 142 158 199 272 296 269 238 284 317 330 371 403 429 428 424 381 357 380 417 414 424 398 376 346
0 0 0 0 0 41 248 500 148 152 102 89 119 77 351 283 611 265 372 506 515 868 796 880 662 511 564 579 884 742 370 203 214 46 2 0 0 102 130 155 156 158 168 167 226 244 233 324 280 352 353 373 403 378 337 312 334 364 374 341 348 331 334
0 0 0 0 0 8 161 135 36 144 127 152 171 87 323 423 224 559 585 600 562 817 1179 554 599 396 254 264 606 485 355 198 164 135 59 0 0 136 127 166 167 166 171 147 144 137 176 236 283 280 276 292 290 278 243 244 270 253 287 335 356 325 218
0 0 0 0 2 82 64 0 27 186 215 220 269 220 432 310 599 550 1112 1266 952 779 1273 1040 410 510 635 678 649 381 336 328 124 13 33 102 38 73 128 148 155 157 171 170 155 154 146 145 205 216 229 239 257 211 202 212 250 217 192 213 185 168 212
0 0 0 0 0 266 83 0 15 240 122 37 33 605 1104 764 730 445 955 844 806 473 670 718 644 721 686 528 601 487 555 277 110 28 0 128 133 110 91 78 58 93 118 137 137 117 102 107 94 94 109 149 199 213 192 222 219 200 168 161 143 159 147
0 0 0 0 0 321 223 91 111 198 25 339 308 691 779 436 765 622 1033 724 921 768 915 770 1079 795 698 806 661 436 463 318 145 92 68 177 67 0 57 47 0 0 41 0 22 28 88 31 29 62 66 64 58 55 42 99 132 176 201 192 164 126 0
0 0 0 3 331 69 208 58 156 286 387 604 787 725 816 753 690 679 656 972 758 641 1019 1040 661 720 854 810 817 652 352 79 0 2 0 98 0 0 0 0 0 0 0 0 0 0 0 0 0 21 64 76 43 18 12 17 2 0 0 0 0 0 0
0 172 394 337 321 360 272 197 188 641 812 585 491 780 1073 639 596 700 865 1082 1071 1653 1560 1310 1220 844 844 824 726 411 231 10 0 0 0 0 0 0 0 0 0 0 0 0 0 0 0 0 0 0 17 78 67 26 3 9 2 0 0 0 0 0 0
26 91 296 204 182 250 387 409 713 860 712 590 526 551 617 551 686 364 782 715 743 1093 1250 1242 1280 1193 1052 827 670 495 156 16 0 0 0 0 0 0 0 0 0 0 0 0 0 0 0 0 0 0 0 2 39 60 16 2 27 14 0 0 0 0 0
31 99 248 74 150 312 354 595 597 684 563 620 483 568 682 694 496 641 700 636 738 792 847 1384 1438 1303 1050 810 656 436 128 11 0 0 0 0 4 13 7 6 8 2 1 1 0 0 0 0 0 0 0 0 2 32 38 10 23 68 41 3 0 0 0
59 315 454 235 328 379 349 499 769 597 682 587 630 667 781 676 667 622 656 612 591 747 823 1156 1241 1301 1038 858 634 365 144 28 39 105 64 80 131 198 150 106 70 69 70 67 70 32 2 0 0 0 0 0 0 8 31 62 88 52 24 29 0 0 0
142 634 888 669 388 472 409 484 500 644 741 748 732 764 724 637 646 667 468 486 544 623 665 870 1156 1214 1064 767 512 256 189 174 180 219 280 303 333 321 302 254 238 238 211 180 172 175 116 60 2 0 0 0 0 0 6 86 137 102 90 23 2 1 0
68 389 868 552 253 440 404 454 542 690 819 808 836 713 566 537 604 462 469 469 592 1036 533 775 1111 1233 1076 833 485 410 377 337 383 429 431 398 366 282 268 297 277 311 289 239 249 267 222 167 145 56 8 0 0 0 0 0 4 56 78 56 0 0 0
0 29 826 517 180 370 613 604 662 780 721 750 709 584 526 548 513 493 497 446 763 1106 984 1218 1028 1201 1045 722 590 527 442 466 512 548 470 441 353 290 273 240 151 127 262 350 332 315 267 225 167 136 52 22 7 0 0 0 0 0 0 0 0 0 0
90 78 564 216 156 273 726 706 823 678 611 604 529 579 574 549 491 495 514 504 644 826 901 1066 1244 1350 1170 757 471 411 457 400 376 348 372 434 424 387 274 253 227 256 156 166 206 268 248 163 189 160 46 52 50 5 3 0 0 0 0 0 0 0 0
398 112 375 495 262 356 784 931 693 610 559 475 519 549 529 511 480 552 646 679 650 675 902 999 1191 1268 1173 752 430 398 420 338 297 373 358 463 398 369 386 361 293 310 352 294 276 237 208 170 124 46 19 0 2 47 102 15 62 14 0 0 0 0 0

ECMWFFLT2_con_mucape_138.txt.gz
CAPE
0 0 0 0 0 0 0 0 2 0 0 0 0 0 1 2 1 0 213 462 468 517 437 328 785 719 1108 1069 1047 1000 953 874 1005 967 879 1090 1379 2245 2382 1978 1636 1092 740 1283 303 356 197 285 216 406 1625 1393 1929 3156 2950 2928 3186 2540 2441 2956 2490 2481 2582
0 0 0 0 0 0 0 1 0 0 0 0 0 0 0 0 0 6 2 531 594 503 277 506 204 812 949 1001 967 943 899 840 1074 619 712 960 1203 1913 1946 2237 2336 1980 1861 1157 991 485 419 687 282 300 1348 1363 1571 2208 2655 2694 2933 2931 2236 2470 2212 2189 2455
0 0 0 0 0 0 0 0 0 0 0 2 4 0 0 0 2 2 36 498 419 43 334 182 141 123 294 710 852 957 973 1028 984 814 723 1010 1306 1252 1602 1943 2637 2792 2116 1518 1272 648 530 1447 1305 458 516 1109 1590 1338 2368 2602 2795 2644 2295 2231 1946 1995 2131
0 0 0 0 0 0 0 0 0 0 0 1 0 4 3 1 1 0 1 313 387 494 522 542 431 524 575 663 872 671 1137 1053 1043 1078 1147 1182 1073 1062 1212 1862 2201 2310 2203 2406 1491 1497 1816 1306 1253 1264 1184 1338 833 955 1940 2422 2737 2933 2162 2164 2112 1694 1637
0 0 0 0 0 0 0 0 2 0 0 0 0 1 0 5 0 2 0 93 316 427 730 664 516 642 470 556 687 998 1046 1146 1204 1370 1169 1142 957 958 1137 1380 1846 2006 1842 1903 2094 2625 2328 1491 1555 2322 1960 1837 848 715 948 1384 2904 2778 2424 1605 1786 1980 1855
4 3 0 0 0 0 4 0 2 0 0 0 0 4 12 6 0 1 2 94 223 556 412 147 236 436 604 600 929 1103 1164 1001 1184 1285 1395 1072 1055 1427 1183 944 1390 1024 1591 1927 2273 2233 2677 1942 1545 2711 2049 1264 2417 2212 1969 2145 3089 2503 2194 1721 1520 2216 1917
3 0 0 0 0 0 0 0 0 0 0 0 0 0 2 0 1 3 0 3 140 538 480 477 574 289 494 641 854 906 838 1034 1310 1267 1270 1160 1141 1280 1347 1229 1029 1209 1346 1703 1551 1737 2001 2560 2371 2296 2420 2489 2727 2399 1950 1680 1020 1459 1280 918 842 1962 1954
0 0 0 0 0 0 0 0 0 0 0 1 4 2 2 0 0 1 12 224 191 390 572 610 675 356 80 566 692 633 806 735 1116 1093 1164 1060 1037 1099 1220 1345 1441 1074 1114 1039 1725 1692 2033 1994 1820 1829 2665 2251 2304 2608 1945 2640 2132 1837 1964 1363 1367 2285 2325
0 0 0 0 0 0 0 0 0 0 0 0 0 0 4 0 0 0 0 0 95 750 834 751 702 688 541 742 758 915 935 854 1003 1034 982 871 858 812 991 1020 1057 1010 1359 977 969 1501 2270 2209 2263 2354 1986 1929 2238 1602 1776 1866 2205 1968 2088 2110 2481 1485 1930
2 5 6 4 1 3 0 0 1 1 0 0 4 1 11 1 0 0 0 0 462 924 762 779 604 681 902 879 728 746 832 695 1021 1078 1018 1002 1051 821 907 1011 1072 1160 1410 1210 1200 1559 1762 1940 1747 1952 2270 2279 1992 1790 1506 1713 2516 2462 2873 2482 1679 2156 2264
0 0 0 0 0 1 0 0 0 0 1 1 0 1 0 0 4 0 201 260 224 412 535 742 540 814 813 778 716 799 759 745 750 996 1040 1030 1053 986 1091 1148 1164 1258 1248 1246 1036 817 1145 921 1492 1655 1834 1844 1941 2009 1777 2321 3448 3505 3397 3054 2703 3455 3032
0 0 0 0 0 0 0 0 0 0 0 1 0 0 0 0 0 2 372 587 82 325 649 724 892 795 756 908 822 652 661 529 600 681 786 817 789 787 895 876 1128 976 887 851 934 983 988 767 969 1146 1055 1363 1801 1952 2036 2123 2335 2640 3202 2948 2850 2958 3217
0 0 0 0 0 0 0 0 0 0 0 0 0 0 0 2 0 1 424 272 279 670 816 834 834 757 803 686 645 579 544 473 542 764 850 899 760 741 697 823 796 793 814 744 620 588 726 707 960 1206 1022 986 1400 1361 1527 1826 1837 1784 2334 2464 2812 2897 2987
0 0 0 0 0 0 0 0 0 0 0 0 0 0 0 26 190 362 522 340 870 930 842 820 781 774 750 660 612 552 492 402 439 535 586 729 648 592 697 668 579 585 614 586 551 528 493 494 573 800 992 1162 1027 1194 1339 1541 1279 1386 1476 1799 1654 1688 2246
0 0 0 0 0 0 0 0 0 0 0 0 0 0 0 0 20 378 568 478 722 1165 1174 1103 1064 901 755 636 592 545 426 507 408 476 542 573 569 474 497 587 616 592 617 565 543 554 510 534 593 725 847 988 1152 1225 1364 1646 1714 1645 1423 1205 1719 1658 1881
0 0 0 0 0 0 0 0 0 0 0 0 0 0 151 82 207 402 341 409 433 868 1161 1112 1016 846 761 654 596 524 528 368 294 326 401 446 438 432 434 470 655 632 620 618 588 572 628 593 554 609 578 865 1038 1351 1334 1330 1462 1529 1605 1622 1622 1612 1825
0 0 0 0 0 0 0 0 0 0 0 0 0 0 49 52 23 13 4 176 721 920 1068 1007 980 915 904 686 569 540 326 310 192 201 220 270 303 379 385 378 451 586 632 534 562 603 602 642 545 647 671 777 833 933 1113 1145 1270 1241 1238 1222 1600 1521 1148
1 3 0 6 1 0 57 2 0 0 0 0 0 0 1 212 144 128 34 293 736 942 837 592 724 817 622 511 563 453 446 299 299 284 150 172 228 228 268 208 378 426 502 420 422 477 533 563 628 621 608 737 674 769 827 814 719 791 824 924 972 1049 1037
0 2 8 0 0 34 17 88 27 2 0 0 0 0 3 287 200 168 226 220 378 771 607 668 845 741 652 586 546 531 374 438 330 254 236 108 114 142 178 148 108 344 411 412 400 460 482 498 580 626 511 516 472 493 610 538 617 612 665 633 692 805 907
0 0 4 0 1 39 15 22 8 0 0 0 0 0 0 211 359 211 420 496 354 580 817 850 632 724 651 474 413 496 452 549 534 417 256 45 86 90 94 124 383 30 337 425 450 500 519 516 517 515 631 691 449 474 436 509 508 561 566 582 566 602 654
0 0 0 0 69 0 1 0 0 0 0 0 0 0 889 436 217 343 397 526 574 573 622 608 682 600 702 670 507 334 324 489 408 379 414 98 45 33 13 43 295 325 268 332 443 469 494 592 529 431 430 423 342 362 380 396 486 489 513 506 503 477 478
0 0 0 0 2 2 73 206 89 1 0 0 46 102 543 285 360 370 460 636 451 701 521 732 735 631 519 431 564 618 563 440 235 174 198 71 101 42 9 0 358 386 261 188 266 342 389 346 352 392 385 351 396 395 284 293 407 389 446 431 516 452 344
0 8 0 0 5 438 110 52 41 12 5 0 60 0 162 309 412 239 174 469 677 514 544 820 852 609 502 276 740 593 470 229 246 70 33 7 0 9 16 3 13 222 155 159 130 162 296 399 407 418 446 426 359 322 312 269 322 370 302 118 52 188 232
0 0 11 1 27 360 148 70 16 0 0 0 0 1 102 223 485 362 308 426 706 810 828 843 638 379 210 94 493 680 505 333 267 185 58 0 0 0 0 0 0 11 348 298 63 96 328 322 334 358 356 350 313 260 248 276 279 257 280 301 356 339 266
0 0 0 9 109 86 55 0 0 0 0 24 11 24 196 247 335 546 427 401 644 554 869 746 608 464 664 637 713 649 464 376 224 41 0 0 0 55 5 0 0 0 0 4 15 3 103 176 203 239 253 252 278 271 270 247 220 200 226 265 247 238 237
0 0 0 0 72 236 16 0 1 4 0 0 14 616 459 386 477 522 526 464 659 408 692 516 484 685 849 720 742 618 458 245 94 34 0 0 0 0 0 0 0 0 0 0 0 1 2 6 56 64 79 100 100 142 194 206 216 207 198 214 225 190 152
0 0 0 1 62 103 60 0 38 0 0 382 436 675 653 347 541 404 618 560 532 646 671 744 820 810 759 670 576 417 296 152 1 0 0 0 0 0 0 0 0 0 0 0 0 0 18 33 33 48 63 75 69 59 47 57 85 132 162 183 169 152 142
0 0 0 117 161 35 12 0 83 94 443 369 527 203 331 155 409 463 469 434 444 579 694 951 960 876 846 750 793 643 292 190 77 29 29 0 0 0 0 0 0 0 0 0 0 0 0 31 72 108 99 57 48 42 20 34 25 13 0 0 0 0 0
20 203 92 41 87 47 0 98 230 364 174 256 310 219 378 407 652 797 822 679 344 651 754 678 767 757 815 672 518 446 217 95 22 0 0 0 0 0 0 0 0 0 0 0 0 0 0 0 17 103 139 110 83 69 70 122 78 55 30 0 0 0 0
5 65 425 138 104 93 50 91 286 258 97 155 77 426 434 431 346 643 826 896 1094 1174 1075 657 491 707 746 604 482 318 53 10 1 0 0 0 0 0 0 0 0 0 0 0 0 0 0 0 0 23 79 122 140 108 53 92 80 99 35 35 31 1 0
0 152 107 114 8 18 280 184 197 282 162 357 226 535 436 447 181 612 861 1091 820 1083 1009 1096 714 659 583 535 362 138 14 8 58 0 0 0 0 0 0 0 2 3 0 0 0 0 0 0 0 0 0 37 122 210 181 44 40 197 146 41 15 0 0
0 362 132 281 86 128 192 252 226 154 132 305 290 454 638 428 476 473 492 545 1295 984 945 1257 1174 882 769 590 372 235 172 65 12 20 77 169 109 132 135 126 161 142 138 101 30 0 0 0 0 0 0 0 18 130 122 111 95 49 67 37 1 0 0
30 172 465 391 311 123 149 279 227 191 295 329 397 508 568 460 351 429 278 332 365 492 1128 1058 946 768 703 601 408 167 124 180 186 194 260 285 280 252 220 214 229 290 287 309 300 193 88 15 0 0 0 0 0 0 19 106 207 175 106 0 0 0 1
5 69 384 353 152 120 89 209 356 612 393 466 487 564 388 379 441 287 304 367 272 394 591 772 977 853 730 521 261 173 276 311 319 324 422 407 338 332 358 370 358 338 316 298 354 330 255 205 140 77 37 5 0 0 0 0 19 40 59 114 0 0 0
0 18 273 691 472 74 146 491 258 721 671 616 572 390 399 410 328 223 330 300 436 241 348 580 701 864 652 272 208 243 274 350 552 563 464 477 473 454 399 400 332 306 345 335 331 337 316 259 159 95 82 90 96 18 27 16 10 67 48 47 6 0 0
136 44 214 440 295 76 132 327 479 489 654 541 402 369 487 449 235 282 291 520 634 390 590 842 712 554 712 387 269 341 447 465 542 503 499 499 475 454 422 339 376 309 240 234 302 310 273 243 163 99 18 12 41 6 9 19 44 109 35 5 2 0 0
308 269 486 256 90 447 233 474 562 536 573 501 364 420 508 407 317 323 382 506 665 646 700 492 896 771 566 556 495 482 522 565 562 550 584 667 503 522 540 498 400 411 474 357 335 303 237 198 159 149 23 0 5 69 29 2 25 38 13 0 0 0 0

ECMWFFLT2_con_mucape_141.txt.gz
CAPE
0 0 0 0 0 0 0 0 0 0 0 0 2 23 1 0 10 595 742 581 656 636 609 712 720 1085 987 1233 1201 1099 1112 1334 1530 1553 1518 1450 1678 2161 2379 2223 1888 1555 1477 1425 929 512 380 669 803 878 1371 1774 2010 2245 2264 2622 2566 2515 2826 2717 2066 2142 1758
0 0 0 0 0 0 0 0 0 0 0 0 0 0 0 0 0 508 398 428 399 428 268 363 589 328 840 761 856 1096 1089 1002 1018 1215 1220 1176 1631 2021 2264 2605 2522 2233 1693 890 969 943 697 943 692 1063 1617 1769 2288 2480 2102 2671 2654 2542 2679 2863 2557 2200 2094
0 0 0 0 0 0 0 0 0 0 0 0 1 0 0 0 19 196 406 78 158 111 74 332 256 251 244 425 421 771 816 1010 921 917 1089 1145 1255 1474 1930 2378 2249 1990 1553 1505 1252 1715 1950 996 656 1230 1548 1683 1990 2261 1941 1794 2302 2443 2595 2831 2612 2286 2372
0 0 0 0 0 0 0 0 0 0 0 0 0 2 0 0 0 277 193 324 346 413 355 364 307 533 441 387 468 732 869 708 1086 994 1130 1180 1194 1283 1757 1793 1413 1578 1839 2204 2312 2229 2300 1353 633 911 1094 1417 1710 1971 1492 1444 1904 2091 2261 2231 2421 2421 2286
0 0 0 0 0 0 0 0 0 0 0 0 0 0 0 0 0 58 208 221 269 368 426 455 482 510 407 342 466 719 797 924 739 1259 1329 1260 1172 1296 1325 1523 1364 1708 2027 1832 1736 2042 2141 2035 1342 1254 981 669 957 869 1054 1534 1589 2172 1976 1715 1947 1771 1772
0 0 0 0 0 0 0 0 0 0 0 0 0 0 0 2 0 0 69 211 357 472 754 770 541 534 540 595 646 766 1063 1129 1186 1067 1131 1097 1138 1208 1335 1318 1384 1423 1318 1317 1568 1815 2066 1671 2226 2236 1641 795 786 764 845 1188 1290 2170 1667 1414 1474 1600 1459
0 0 0 0 0 0 0 0 0 0 0 0 0 0 2 0 2 0 114 218 173 564 743 633 460 610 721 905 984 867 878 1044 1084 1092 996 943 966 1132 1245 1176 1094 1029 888 1101 1354 1780 1933 2017 2204 2130 1931 1829 2266 2236 1628 1320 1135 1681 1605 1340 1182 1387 1499
0 0 0 0 0 0 0 0 0 0 0 0 0 0 0 0 2 0 0 139 294 628 785 751 713 764 870 978 1097 966 842 984 984 958 968 928 891 1042 1007 1005 1062 1050 881 700 517 1370 1669 1923 1841 1530 1429 1648 1922 1978 2154 1336 813 945 1646 1894 1323 1631 1294
0 0 0 0 0 0 0 0 0 0 0 0 0 0 5 0 6 0 0 21 19 734 1084 866 830 838 912 963 916 863 804 962 876 897 942 914 796 924 918 1002 986 939 1179 806 1410 1792 1304 921 1115 1390 1404 1271 871 1224 2178 2151 2291 2518 1955 1736 2052 1500 1211
0 0 0 0 0 0 0 0 0 0 2 3 0 3 0 0 3 17 47 82 528 764 975 818 848 982 929 874 851 851 720 831 1016 943 954 987 774 890 1001 1000 994 998 840 882 883 896 811 909 963 1179 1381 1329 1160 944 1519 1870 2670 2280 3124 2002 1466 1479 1984
0 0 0 0 0 0 0 0 0 0 0 1 3 2 0 0 0 103 352 242 663 744 784 739 990 909 879 895 880 844 701 611 738 833 915 934 730 711 830 826 920 899 878 811 775 767 638 502 728 857 694 985 1176 1146 1681 2007 2348 2945 3019 2326 2066 3179 2772
0 0 0 0 0 0 0 0 0 0 0 0 1 0 10 14 0 84 301 327 664 650 812 911 898 849 752 760 792 716 587 466 361 444 438 538 636 612 846 783 742 786 800 697 716 623 781 887 700 609 680 811 1070 1180 1411 1738 2012 2282 2493 2432 1766 3020 3224
0 0 0 0 0 0 0 0 0 0 0 0 0 0 0 318 326 176 311 517 530 525 863 933 853 796 788 804 699 675 474 390 363 431 474 517 666 574 469 593 619 563 657 651 578 615 512 646 696 804 796 1079 1014 706 1078 1266 1367 1921 2430 2464 2450 2592 3033
0 0 0 0 0 0 0 0 0 0 0 0 0 0 86 323 356 348 664 790 781 820 985 971 850 745 724 684 611 522 389 260 237 239 366 437 499 558 540 454 378 432 494 542 534 455 485 551 528 760 852 1044 1151 836 767 1508 1225 1562 1603 1927 2000 1889 2356
0 0 0 0 0 0 0 0 0 0 0 0 0 0 277 284 305 377 685 1142 1026 939 954 955 857 754 626 599 623 551 436 294 200 189 307 310 303 371 441 351 353 338 468 441 496 499 522 529 531 614 833 966 996 962 980 1088 1602 1582 1538 1467 1542 1260 1540
0 0 0 0 0 0 0 0 0 0 0 0 0 25 13 369 362 494 350 859 1019 808 976 907 773 652 604 636 538 460 308 204 126 88 90 106 206 292 259 322 376 420 437 459 456 503 577 643 607 668 872 1049 1024 899 890 891 1090 1370 1388 992 842 877 1420
0 0 0 0 0 0 0 0 0 0 0 0 13 14 99 52 163 252 598 1047 997 1006 924 828 716 661 581 508 511 271 207 122 59 33 22 30 121 178 218 205 337 367 432 439 343 400 474 529 597 709 906 906 960 962 928 952 920 993 980 1023 686 766 1017
0 0 0 0 0 0 4 0 5 0 0 0 7 26 92 77 123 541 801 1012 1154 1003 839 804 760 692 562 460 515 348 142 88 71 32 15 23 84 115 134 214 326 320 349 323 311 345 462 516 717 819 876 816 765 752 748 784 912 830 892 853 927 847 681
0 0 0 0 0 4 40 83 21 12 0 4 2 10 77 70 434 773 867 874 770 784 806 772 684 606 520 483 406 364 363 170 81 40 19 15 71 117 197 228 214 256 395 422 287 338 438 511 542 517 500 548 549 568 572 702 741 808 777 798 845 842 801
0 0 0 0 0 132 47 56 14 17 0 0 1 249 149 190 278 507 712 676 885 937 828 717 631 584 512 435 423 454 456 372 144 38 5 0 6 20 86 195 225 329 200 360 324 319 379 465 435 478 529 475 511 452 444 538 584 623 659 627 658 619 662
0 0 1 0 77 31 84 31 0 0 15 25 63 318 212 372 407 392 537 825 944 835 797 713 589 510 400 329 267 321 333 285 258 170 89 35 3 4 34 139 252 273 335 217 303 311 355 366 362 370 390 351 363 380 409 493 477 507 504 545 602 629 640
0 0 0 0 0 12 99 33 0 0 0 11 196 299 221 397 542 493 526 672 818 714 628 668 604 499 417 334 316 314 255 225 119 47 3 2 0 5 21 48 346 327 219 172 227 256 335 345 345 382 422 371 357 322 347 397 431 430 446 506 532 585 565
0 0 0 0 0 342 39 114 24 4 0 0 6 221 158 204 594 588 592 560 558 627 635 615 660 572 371 334 324 411 210 71 39 5 0 0 0 0 0 0 13 79 333 134 142 84 199 208 332 337 333 323 255 285 417 438 446 442 378 292 299 310 261
0 0 0 0 28 313 178 196 12 0 0 0 0 2 250 189 291 698 687 651 640 669 691 634 632 407 401 123 414 345 123 61 0 0 0 0 0 0 0 0 56 5 136 266 201 253 292 288 353 375 340 298 339 367 433 356 396 422 233 156 276 237 220
0 0 0 0 26 116 461 173 19 0 1 10 0 2 128 344 323 615 681 713 676 765 768 657 664 687 563 168 396 531 205 109 8 0 0 0 0 0 9 0 0 0 119 20 45 30 61 271 314 329 309 328 348 362 350 312 324 342 358 233 245 89 178
0 0 0 0 276 370 182 0 21 1 4 19 169 190 312 306 352 436 613 750 844 847 704 603 608 610 716 570 561 374 225 10 0 0 0 0 0 0 0 0 0 0 0 2 22 9 11 153 214 244 282 334 348 359 327 312 307 286 300 285 247 294 308
0 0 0 0 49 48 104 87 152 237 82 310 300 334 372 348 381 464 539 543 524 686 563 781 725 721 650 463 394 268 243 102 0 0 0 0 0 0 0 0 0 0 0 0 0 12 12 15 26 37 51 99 212 257 267 275 305 317 299 256 222 218 211
3 2 0 53 57 49 133 127 277 431 254 220 484 367 298 405 419 450 522 468 451 585 729 748 741 749 683 470 267 136 0 0 0 0 0 0 6 0 0 0 0 0 0 0 0 0 17 54 71 91 60 72 93 36 8 23 101 122 131 140 119 177 188
9 10 14 2 29 220 136 238 356 390 530 677 438 282 305 454 474 464 474 537 687 882 839 762 732 678 544 398 268 68 0 0 0 0 0 0 0 0 0 0 0 0 0 0 0 0 0 9 53 93 147 178 169 98 78 50 9 9 29 18 0 0 0
328 330 208 223 227 98 214 246 172 254 420 74 163 358 403 442 470 446 428 542 859 959 914 842 784 695 614 470 326 112 4 0 0 0 0 0 0 0 0 0 0 0 0 0 0 0 0 0 1 75 41 91 279 160 85 125 115 107 8 8 66 0 0
26 39 53 284 45 95 199 165 538 355 134 88 324 438 556 610 632 618 386 656 868 854 877 814 830 746 648 563 355 174 0 0 0 0 0 0 0 0 0 0 0 0 0 0 0 0 0 0 0 0 17 55 108 117 102 29 41 61 214 59 3 0 0
0 408 427 240 126 259 116 137 136 140 476 497 549 580 550 643 774 755 891 1033 976 712 736 730 827 690 590 462 267 0 0 0 0 0 0 8 43 111 70 180 76 13 0 0 0 0 0 0 0 0 0 0 20 68 91 102 99 77 127 1 0 0 0
386 290 342 358 306 245 128 132 161 288 486 440 417 315 476 661 757 882 946 1036 1035 999 978 870 774 674 557 394 29 0 0 0 5 88 125 139 108 108 209 435 397 128 101 79 34 15 3 0 0 0 0 0 0 0 12 32 38 76 187 83 0 0 0
99 180 324 258 59 157 159 120 382 685 615 574 454 382 322 368 786 782 914 873 929 1135 1155 990 681 715 587 322 12 0 44 116 140 179 182 177 244 225 235 268 319 399 410 306 251 188 91 48 23 14 14 11 8 8 8 39 49 38 56 24 0 0 0
68 356 567 922 749 507 411 556 700 525 544 556 485 472 405 388 184 426 837 838 946 1084 1108 890 778 706 372 87 45 133 172 154 230 228 195 270 269 248 293 288 356 420 444 453 419 390 224 187 201 208 145 75 50 100 144 62 34 0 0 0 0 0 0
339 348 666 402 210 239 464 482 386 472 712 520 474 803 389 266 231 506 717 790 836 1019 959 882 794 552 369 86 46 128 256 249 369 358 411 327 338 347 381 391 352 304 356 470 473 424 437 374 306 194 134 142 17 8 24 57 25 4 0 0 0 0 0
266 285 638 672 360 435 418 370 315 272 507 370 397 550 284 245 293 542 496 615 791 935 922 824 653 529 318 57 83 187 224 310 365 418 447 483 505 433 408 340 376 426 408 416 414 331 203 189 78 1 1 86 34 1 12 96 148 44 9 0 0 0 0